| time (UTC) | temp F | wind direction | speed knots | gust knots | rain 1hr in | rain 24hr in | rain mn in | humidity % | barometer mb |
| 20260508010028 | 0 | 126 | 0.9 | 3.5 | 0.00 | 0.00 | 0.00 | 86 | 1016.8 |
| 20260508005027 | 0 | 135 | 0.9 | 2.6 | 0.00 | 0.00 | 0.00 | 86 | 1016.8 |
| 20260508004026 | 0 | 73 | 0.9 | 2.6 | 0.00 | 0.00 | 0.00 | 86 | 1016.8 |
| 20260508003025 | 0 | 68 | 0.9 | 2.6 | 0.00 | 0.00 | 0.00 | 86 | 1016.9 |
| 20260508002255 | 0 | 68 | 0.9 | 0.9 | 0.00 | 0.00 | 0.00 | 86 | 1016.9 |
| 20260508001054 | 0 | 68 | 0.9 | 2.6 | 0.00 | 0.00 | 0.00 | 86 | 1016.9 |
| 20260508000251 | 0 | 0 | 0.9 | 0.9 | 0.00 | 0.00 | 0.00 | 86 | 1017.0 |
| 20260507235130 | 0 | 0 | 0.9 | 0.9 | 0.00 | 0.00 | 0.00 | 86 | 1017.0 |
| 20260507234030 | 0 | 0 | 0.9 | 0.9 | 0.00 | 0.00 | 0.00 | 86 | 1017.0 |
| 20260507233129 | 0 | 357 | 0.9 | 0.9 | 0.00 | 0.00 | 0.00 | 86 | 1017.0 |
| 20260507232028 | 0 | 338 | 0.9 | 0.9 | 0.00 | 0.00 | 0.00 | 86 | 1017.0 |
| 20260507231028 | 0 | 338 | 0.0 | 0.9 | 0.00 | 0.00 | 0.00 | 86 | 1017.0 |
| 20260507230127 | 0 | 0.0 | 0.0 | 0.00 | 0.00 | 0.00 | 86 | 1017.1 | |
| 20260507225154 | 0 | 0.0 | 0.0 | 0.00 | 0.00 | 0.00 | 86 | 1017.1 | |
| 20260507224322 | 0 | 338 | 0.0 | 0.9 | 0.00 | 0.00 | 0.00 | 86 | 1017.1 |
| 20260507223422 | 0 | 293 | 0.0 | 0.9 | 0.00 | 0.01 | 0.00 | 86 | 1017.0 |
| 20260507222021 | 0 | 0.0 | 0.0 | 0.00 | 0.01 | 0.00 | 86 | 1017.1 | |
| 20260507221051 | 0 | 0.0 | 0.0 | 0.00 | 0.01 | 0.00 | 86 | 1017.1 | |
| 20260507220117 | 0 | 0.0 | 0.0 | 0.00 | 0.01 | 0.00 | 86 | 1017.1 | |
| 20260507215316 | 0 | 0.0 | 0.0 | 0.00 | 0.01 | 0.01 | 86 | 1017.0 | |
| 20260507214145 | 0 | 0.0 | 0.0 | 0.00 | 0.01 | 0.01 | 86 | 1016.9 | |
| 20260507212815 | 0 | 0.0 | 0.0 | 0.00 | 0.01 | 0.01 | 86 | 1016.9 | |
| 20260507211544 | 0 | 0.0 | 0.0 | 0.00 | 0.01 | 0.01 | 86 | 1016.9 | |
| 20260507210043 | 0 | 0.0 | 0.9 | 0.00 | 0.01 | 0.01 | 86 | 1016.9 | |
| 20260507205028 | 0 | 286 | 0.9 | 0.9 | 0.00 | 0.01 | 0.01 | 86 | 1016.7 |
| 20260507204057 | 0 | 270 | 0.0 | 0.9 | 0.00 | 0.01 | 0.01 | 86 | 1016.7 |
| 20260507203126 | 0 | 290 | 0.9 | 2.6 | 0.00 | 0.01 | 0.01 | 86 | 1016.8 |
| 20260507202223 | 0 | 284 | 0.9 | 2.6 | 0.00 | 0.01 | 0.01 | 86 | 1016.8 |
| 20260507201052 | 0 | 276 | 1.7 | 2.6 | 0.00 | 0.01 | 0.01 | 86 | 1016.6 |
| 20260507200051 | 0 | 270 | 1.7 | 2.6 | 0.00 | 0.01 | 0.01 | 86 | 1016.6 |
| 20260507195050 | 0 | 270 | 2.6 | 4.3 | 0.00 | 0.01 | 0.01 | 86 | 1016.6 |
| 20260507194019 | 0 | 278 | 3.5 | 6.1 | 0.00 | 0.01 | 0.01 | 86 | 1016.5 |
| 20260507193049 | 0 | 273 | 2.6 | 6.1 | 0.00 | 0.01 | 0.01 | 86 | 1016.5 |
| 20260507192048 | 0 | 288 | 2.6 | 6.1 | 0.00 | 0.01 | 0.01 | 86 | 1016.4 |
| 20260507191144 | 0 | 269 | 4.3 | 8.7 | 0.00 | 0.01 | 0.01 | 86 | 1016.3 |
| 20260507190043 | 0 | 276 | 5.2 | 9.6 | 0.00 | 0.01 | 0.01 | 86 | 1016.2 |
| 20260507185143 | 0 | 278 | 5.2 | 8.7 | 0.00 | 0.01 | 0.01 | 86 | 1016.1 |
| 20260507184041 | 0 | 267 | 5.2 | 9.6 | 0.00 | 0.01 | 0.01 | 86 | 1016.1 |
| 20260507183041 | 0 | 275 | 4.3 | 7.0 | 0.00 | 0.01 | 0.01 | 86 | 1016.0 |
| 20260507182040 | 0 | 272 | 4.3 | 6.1 | 0.00 | 0.01 | 0.01 | 86 | 1015.9 |
| 20260507181039 | 0 | 276 | 3.5 | 6.1 | 0.00 | 0.01 | 0.01 | 86 | 1015.9 |
| 20260507180038 | 0 | 280 | 3.5 | 6.1 | 0.00 | 0.01 | 0.01 | 86 | 1015.9 |
| 20260507175035 | 0 | 282 | 3.5 | 6.1 | 0.00 | 0.01 | 0.01 | 86 | 1015.9 |
| 20260507174104 | 0 | 280 | 1.7 | 3.5 | 0.00 | 0.01 | 0.01 | 86 | 1015.9 |
| 20260507173033 | 0 | 274 | 3.5 | 6.1 | 0.00 | 0.01 | 0.01 | 86 | 1015.9 |
| 20260507172132 | 0 | 267 | 4.3 | 7.0 | 0.00 | 0.01 | 0.01 | 86 | 1015.9 |
| 20260507171031 | 0 | 274 | 5.2 | 7.0 | 0.00 | 0.01 | 0.01 | 86 | 1015.9 |
| 20260507170030 | 0 | 278 | 4.3 | 6.1 | 0.00 | 0.01 | 0.01 | 86 | 1016.0 |
| 20260507165027 | 0 | 267 | 3.5 | 7.0 | 0.00 | 0.01 | 0.01 | 86 | 1015.8 |
| 20260507164048 | 0 | 281 | 3.5 | 7.0 | 0.00 | 0.01 | 0.01 | 86 | 1015.9 |
| 20260507163046 | 0 | 271 | 4.3 | 7.0 | 0.00 | 0.01 | 0.01 | 86 | 1015.9 |
| 20260507162044 | 0 | 268 | 4.3 | 9.6 | 0.00 | 0.01 | 0.01 | 86 | 1015.9 |
| 20260507161043 | 0 | 274 | 3.5 | 7.0 | 0.00 | 0.01 | 0.01 | 86 | 1015.9 |
| 20260507160042 | 0 | 268 | 3.5 | 6.1 | 0.00 | 0.01 | 0.01 | 86 | 1016.0 |
| 20260507155042 | 0 | 284 | 2.6 | 6.1 | 0.00 | 0.01 | 0.01 | 86 | 1016.1 |
| 20260507154038 | 0 | 277 | 3.5 | 7.0 | 0.00 | 0.01 | 0.01 | 86 | 1016.1 |
| 20260507153037 | 0 | 297 | 3.5 | 9.6 | 0.00 | 0.01 | 0.01 | 86 | 1016.2 |
| 20260507152134 | 0 | 281 | 4.3 | 7.0 | 0.00 | 0.01 | 0.01 | 86 | 1016.1 |
| 20260507151033 | 0 | 280 | 3.5 | 7.0 | 0.00 | 0.01 | 0.01 | 86 | 1016.1 |
| 20260507150029 | 0 | 270 | 3.5 | 7.0 | 0.00 | 0.01 | 0.01 | 86 | 1016.2 |
| 20260507145028 | 0 | 274 | 4.3 | 7.0 | 0.00 | 0.01 | 0.01 | 86 | 1016.2 |
| 20260507144028 | 0 | 274 | 4.3 | 7.0 | 0.00 | 0.01 | 0.01 | 86 | 1016.3 |
| 20260507143027 | 0 | 289 | 3.5 | 7.0 | 0.00 | 0.01 | 0.01 | 86 | 1016.4 |
| 20260507142056 | 0 | 280 | 3.5 | 7.0 | 0.00 | 0.01 | 0.01 | 86 | 1016.4 |
| 20260507141025 | 0 | 281 | 3.5 | 7.0 | 0.00 | 0.01 | 0.01 | 86 | 1016.5 |
| 20260507140122 | 0 | 268 | 3.5 | 7.0 | 0.00 | 0.01 | 0.01 | 86 | 1016.5 |
| 20260507135021 | 0 | 271 | 4.3 | 7.0 | 0.00 | 0.01 | 0.01 | 86 | 1016.6 |
| 20260507134050 | 0 | 281 | 3.5 | 7.0 | 0.00 | 0.01 | 0.01 | 86 | 1016.6 |
| 20260507133049 | 0 | 280 | 3.5 | 7.0 | 0.00 | 0.01 | 0.01 | 86 | 1016.6 |
| 20260507132048 | 0 | 277 | 3.5 | 6.1 | 0.00 | 0.01 | 0.01 | 86 | 1016.6 |
| 20260507131017 | 0 | 278 | 3.5 | 7.0 | 0.00 | 0.01 | 0.01 | 86 | 1016.6 |
| 20260507130017 | 0 | 282 | 5.2 | 8.7 | 0.00 | 0.01 | 0.01 | 86 | 1016.8 |
| 20260507125046 | 0 | 266 | 4.3 | 7.0 | 0.00 | 0.01 | 0.01 | 86 | 1016.7 |
| 20260507124045 | 0 | 272 | 4.3 | 7.0 | 0.00 | 0.01 | 0.01 | 86 | 1016.7 |
| 20260507123044 | 0 | 273 | 4.3 | 6.1 | 0.00 | 0.01 | 0.01 | 86 | 1016.8 |
| 20260507122044 | 0 | 282 | 3.5 | 7.0 | 0.00 | 0.01 | 0.01 | 86 | 1016.8 |
| 20260507121043 | 0 | 268 | 1.7 | 3.5 | 0.00 | 0.01 | 0.01 | 86 | 1016.9 |
| 20260507120042 | 0 | 270 | 2.6 | 4.3 | 0.00 | 0.01 | 0.01 | 86 | 1016.9 |
| 20260507115041 | 0 | 280 | 1.7 | 4.3 | 0.00 | 0.01 | 0.01 | 86 | 1016.9 |
| 20260507114040 | 0 | 215 | 1.7 | 4.3 | 0.00 | 0.01 | 0.01 | 86 | 1017.0 |
| 20260507113039 | 0 | 227 | 1.7 | 3.5 | 0.00 | 0.01 | 0.01 | 86 | 1017.1 |
| 20260507112039 | 0 | 168 | 1.7 | 3.5 | 0.00 | 0.01 | 0.01 | 86 | 1017.2 |
| 20260507111038 | 0 | 206 | 2.6 | 4.3 | 0.00 | 0.01 | 0.01 | 86 | 1017.1 |
| 20260507110037 | 0 | 222 | 1.7 | 3.5 | 0.00 | 0.01 | 0.01 | 86 | 1017.2 |
| 20260507105036 | 0 | 199 | 2.6 | 4.3 | 0.00 | 0.01 | 0.01 | 86 | 1017.1 |
| 20260507104033 | 0 | 239 | 1.7 | 4.3 | 0.00 | 0.01 | 0.01 | 86 | 1017.0 |
| 20260507103033 | 0 | 225 | 1.7 | 4.3 | 0.00 | 0.01 | 0.01 | 86 | 1017.0 |
| 20260507102032 | 0 | 213 | 2.6 | 6.1 | 0.00 | 0.01 | 0.01 | 86 | 1017.0 |
| 20260507101029 | 0 | 229 | 2.6 | 4.3 | 0.00 | 0.01 | 0.01 | 86 | 1017.0 |
| 20260507100028 | 0 | 187 | 2.6 | 4.3 | 0.00 | 0.01 | 0.01 | 86 | 1016.9 |
| 20260507095057 | 0 | 222 | 0.0 | 0.9 | 0.00 | 0.01 | 0.01 | 86 | 1016.9 |
| 20260507094026 | 0 | 112 | 1.7 | 3.5 | 0.00 | 0.01 | 0.01 | 86 | 1016.8 |
| 20260507093025 | 0 | 128 | 1.7 | 3.5 | 0.00 | 0.01 | 0.01 | 86 | 1016.8 |
| 20260507092025 | 0 | 125 | 1.7 | 3.5 | 0.00 | 0.01 | 0.01 | 86 | 1016.8 |
| 20260507091024 | 0 | 100 | 1.7 | 3.5 | 0.00 | 0.01 | 0.01 | 86 | 1016.8 |
| 20260507090023 | 0 | 102 | 1.7 | 3.5 | 0.00 | 0.01 | 0.01 | 86 | 1016.8 |
| 20260507085052 | 0 | 81 | 1.7 | 3.5 | 0.00 | 0.01 | 0.01 | 86 | 1016.8 |
| 20260507084021 | 0 | 88 | 1.7 | 3.5 | 0.00 | 0.01 | 0.01 | 86 | 1016.8 |
| 20260507083118 | 0 | 96 | 0.9 | 4.3 | 0.00 | 0.02 | 0.01 | 86 | 1016.7 |
| 20260507082047 | 0 | 127 | 2.6 | 6.1 | 0.00 | 0.03 | 0.01 | 86 | 1016.6 |
| 20260507081046 | 0 | 119 | 1.7 | 4.3 | 0.00 | 0.04 | 0.01 | 86 | 1016.5 |
| 20260507080045 | 0 | 118 | 1.7 | 4.3 | 0.00 | 0.06 | 0.01 | 86 | 1016.5 |
| 20260507075044 | 0 | 99 | 1.7 | 3.5 | 0.00 | 0.09 | 0.01 | 86 | 1016.4 |
| 20260507074041 | 0 | 104 | 0.9 | 2.6 | 0.00 | 0.10 | 0.01 | 86 | 1016.4 |
| 20260507073040 | 0 | 95 | 1.7 | 3.5 | 0.00 | 0.11 | 0.01 | 86 | 1016.4 |
| 20260507072039 | 0 | 93 | 1.7 | 3.5 | 0.00 | 0.12 | 0.01 | 86 | 1016.4 |
| 20260507071038 | 0 | 98 | 0.9 | 3.5 | 0.00 | 0.12 | 0.01 | 86 | 1016.3 |
| 20260507070037 | 0 | 103 | 1.7 | 4.3 | 0.00 | 0.12 | 0.01 | 86 | 1016.3 |
| 20260507065037 | 0 | 115 | 1.7 | 3.5 | 0.00 | 0.12 | 0.01 | 86 | 1016.3 |
| 20260507064035 | 0 | 86 | 1.7 | 2.6 | 0.00 | 0.12 | 0.01 | 86 | 1016.3 |
| 20260507063032 | 0 | 92 | 1.7 | 2.6 | 0.00 | 0.12 | 0.01 | 86 | 1016.2 |
| 20260507062031 | 0 | 105 | 1.7 | 3.5 | 0.00 | 0.12 | 0.01 | 86 | 1016.2 |
| 20260507061030 | 0 | 126 | 1.7 | 3.5 | 0.00 | 0.12 | 0.01 | 86 | 1016.2 |
| 20260507060029 | 0 | 90 | 0.9 | 2.6 | 0.00 | 0.12 | 0.01 | 86 | 1016.1 |
| 20260507055129 | 0 | 92 | 1.7 | 2.6 | 0.00 | 0.12 | 0.01 | 86 | 1016.1 |
| 20260507054027 | 0 | 99 | 0.9 | 2.6 | 0.00 | 0.12 | 0.01 | 86 | 1016.1 |
| 20260507053057 | 0 | 90 | 0.9 | 2.6 | 0.00 | 0.12 | 0.01 | 86 | 1016.0 |
| 20260507052055 | 0 | 111 | 0.9 | 2.6 | 0.00 | 0.12 | 0.01 | 86 | 1016.0 |
| 20260507051125 | 0 | 75 | 0.9 | 2.6 | 0.00 | 0.12 | 0.01 | 86 | 1015.9 |
| 20260507050024 | 0 | 68 | 0.9 | 2.6 | 0.00 | 0.12 | 0.01 | 86 | 1015.8 |
| 20260507045323 | 0 | 68 | 0.0 | 0.9 | 0.00 | 0.12 | 0.01 | 86 | 1015.8 |
| 20260507044053 | 0 | 67 | 0.0 | 0.9 | 0.00 | 0.12 | 0.01 | 86 | 1015.7 |
| 20260507043122 | 0 | 68 | 0.0 | 0.9 | 0.00 | 0.12 | 0.01 | 86 | 1015.7 |
| 20260507042221 | 0 | 68 | 0.0 | 0.9 | 0.00 | 0.12 | 0.01 | 86 | 1015.7 |
| 20260507041020 | 0 | 68 | 0.9 | 2.6 | 0.00 | 0.12 | 0.01 | 86 | 1015.6 |
| 20260507040019 | 0 | 68 | 0.9 | 0.9 | 0.00 | 0.12 | 0.01 | 86 | 1015.6 |
| 20260507035048 | 0 | 68 | 0.9 | 0.9 | 0.00 | 0.12 | 0.01 | 86 | 1015.5 |
| 20260507034048 | 0 | 68 | 0.0 | 0.9 | 0.00 | 0.12 | 0.01 | 86 | 1015.6 |
| 20260507033047 | 0 | 68 | 0.0 | 0.9 | 0.00 | 0.12 | 0.01 | 86 | 1015.5 |
| 20260507032116 | 0 | 45 | 0.0 | 0.9 | 0.00 | 0.13 | 0.01 | 86 | 1015.5 |
| 20260507031046 | 0 | 0.0 | 0.0 | 0.00 | 0.13 | 0.01 | 86 | 1015.5 | |
| 20260507030214 | 0 | 0.0 | 0.0 | 0.00 | 0.13 | 0.01 | 86 | 1015.4 | |
| 20260507025536 | 0 | 45 | 0.0 | 0.9 | 0.00 | 0.13 | 0.01 | 86 | 1015.5 |
| 20260507024535 | 0 | 71 | 0.9 | 2.6 | 0.00 | 0.13 | 0.01 | 86 | 1015.4 |
| 20260507023604 | 0 | 0.0 | 0.0 | 0.00 | 0.13 | 0.01 | 86 | 1015.3 | |
| 20260507023004 | 0 | 0.0 | 0.0 | 0.00 | 0.13 | 0.01 | 86 | 1015.3 | |
| 20260507021829 | 0 | 0.0 | 0.0 | 0.00 | 0.13 | 0.01 | 86 | 1015.2 | |
| 20260507020529 | 0 | 113 | 0.0 | 0.9 | 0.00 | 0.13 | 0.01 | 86 | 1015.1 |
| 20260507015627 | 0 | 113 | 0.0 | 0.9 | 0.00 | 0.13 | 0.01 | 86 | 1015.1 |
| 20260507014927 | 0 | 0.0 | 0.0 | 0.00 | 0.13 | 0.01 | 86 | 1015.1 | |
| 20260507012557 | 0 | 113 | 0.0 | 0.9 | 0.00 | 0.13 | 0.01 | 86 | 1015.1 |
| 20260507011555 | 0 | 113 | 0.9 | 0.9 | 0.00 | 0.13 | 0.01 | 86 | 1015.1 |